INTELSAT 28 (IS-28)

Last updated on Sun Apr 12 2026 00:02:52 GMT+0000 (Coordinated Universal Time)

1 37392U 11016A 26101.42187344 -.00000222 00000+0 00000+0 0 9991 2 37392 1.6325 83.4147 0004319 305.1024 291.3088 1.00273048 52612
UTC large
Height (km)
Speed (km/s)
/
Latitude / Longitude
Inclination (degrees)
Orbital Period (minutes)
Azimuth
Elevation
Range (km)
Doppler Factor

Next 0 passes for location: London (51.5072 / 0.1276)

Sorry there are no passes over London.
INTELSAT 28 (IS-28)